Location: Brno
(49.2000°N, 16.6330°E)
Time: 11:08:17
(UTC+02:00)

ISS - Visible Passes

Search period start: 26 March 2017 00:00
Search period end: 05 April 2017 01:00
Orbit: 399 x 409 km, 51.6° (Epoch: 26 March)

Date Brightness Start Highest point End Pass type
(mag) Time Alt. Az. Time Alt. Az. Time Alt. Az.
27 Mar -1.7 20:17:26 10° SSE 20:18:27 12° SE 20:18:27 12° SE visible
28 Mar -3.0 20:59:23 10° SW 21:01:53 34° S 21:01:53 34° S visible
29 Mar -2.5 20:07:31 10° SSW 20:10:10 23° SE 20:12:20 13° E visible
29 Mar -2.4 21:43:05 10° WSW 21:45:01 33° WSW 21:45:01 33° WSW visible
30 Mar -3.9 20:50:44 10° WSW 20:53:58 66° SSE 20:55:14 33° E visible
30 Mar -0.9 22:27:18 10° W 22:27:54 14° W 22:27:54 14° W visible
31 Mar -3.4 19:58:30 10° SW 20:01:37 42° SSE 20:04:44 10° ENE visible
31 Mar -3.4 21:34:47 10° W 21:37:56 62° NNW 21:37:56 62° NNW visible
01 Apr -3.8 20:42:18 10° WSW 20:45:33 79° NNW 20:47:49 19° ENE visible
01 Apr -1.5 22:19:01 10° WNW 22:20:29 23° WNW 22:20:29 23° WNW visible
02 Apr -3.3 21:26:30 10° W 21:29:42 53° N 21:30:15 46° NE visible
03 Apr -3.4 20:33:57 10° W 20:37:11 59° N 20:39:56 13° ENE visible
03 Apr -2.0 22:10:38 10° WNW 22:12:35 32° WNW 22:12:35 32° WNW visible
04 Apr -3.3 21:18:07 10° WNW 21:21:21 55° N 21:22:13 39° ENE visible
04 Apr -0.6 22:54:38 10° WNW 22:54:51 11° WNW 22:54:51 11° WNW visible
